Year,Month,Day,Hour,Minute,Value (Times are PST for temperature in C)
2023,05,14,00,00,16.10
2023,05,14,00,01,16.00
2023,05,14,00,02,15.90
2023,05,14,00,03,15.90
2023,05,14,00,04,15.90
2023,05,14,00,05,15.80
2023,05,14,00,06,15.80
2023,05,14,00,07,15.80
2023,05,14,00,08,15.80
2023,05,14,00,09,15.80
2023,05,14,00,10,15.80
2023,05,14,00,11,15.80
2023,05,14,00,12,15.80
2023,05,14,00,13,15.70
2023,05,14,00,14,15.70
2023,05,14,00,15,15.70
2023,05,14,00,16,15.70
2023,05,14,00,17,15.60
2023,05,14,00,18,15.60
2023,05,14,00,19,15.60
2023,05,14,00,20,15.60
2023,05,14,00,21,15.50
2023,05,14,00,22,15.50
2023,05,14,00,23,15.50
2023,05,14,00,24,15.50
2023,05,14,00,25,15.40
2023,05,14,00,26,15.40
2023,05,14,00,27,15.40
2023,05,14,00,28,15.40
2023,05,14,00,29,15.40
2023,05,14,00,30,15.30
2023,05,14,00,31,15.30
2023,05,14,00,32,15.30
2023,05,14,00,33,15.30
2023,05,14,00,34,15.30
2023,05,14,00,35,15.30
2023,05,14,00,36,15.30
2023,05,14,00,37,15.30
2023,05,14,00,38,15.40
2023,05,14,00,39,15.40
2023,05,14,00,40,15.40
2023,05,14,00,41,15.40
2023,05,14,00,42,15.40
2023,05,14,00,43,15.40
2023,05,14,00,44,15.30
2023,05,14,00,45,15.30
2023,05,14,00,46,15.30
2023,05,14,00,47,15.20
2023,05,14,00,48,15.20
2023,05,14,00,49,15.10
2023,05,14,00,50,15.10
2023,05,14,00,51,15.00
2023,05,14,00,52,15.00
2023,05,14,00,53,14.90
2023,05,14,00,54,14.90
2023,05,14,00,55,14.90
2023,05,14,00,56,14.90
2023,05,14,00,57,14.90
2023,05,14,00,58,15.00
2023,05,14,00,59,15.00
2023,05,14,01,00,15.10
2023,05,14,01,01,15.10
2023,05,14,01,02,15.10
2023,05,14,01,03,15.10
2023,05,14,01,04,15.10
2023,05,14,01,05,15.10
2023,05,14,01,06,15.10
2023,05,14,01,07,15.10
2023,05,14,01,08,15.10
2023,05,14,01,09,15.10
2023,05,14,01,10,15.10
2023,05,14,01,11,15.10
2023,05,14,01,12,15.10
2023,05,14,01,13,15.10
2023,05,14,01,14,15.10
2023,05,14,01,15,15.10
2023,05,14,01,16,15.10
2023,05,14,01,17,15.20
2023,05,14,01,18,15.30
2023,05,14,01,19,15.40
2023,05,14,01,20,15.40
2023,05,14,01,21,15.50
2023,05,14,01,22,15.50
2023,05,14,01,23,15.50
2023,05,14,01,24,15.40
2023,05,14,01,25,15.40
2023,05,14,01,26,15.30
2023,05,14,01,27,15.30
2023,05,14,01,28,15.30
2023,05,14,01,29,15.20
2023,05,14,01,30,15.20
2023,05,14,01,31,15.10
2023,05,14,01,32,15.10
2023,05,14,01,33,15.10
2023,05,14,01,34,15.10
2023,05,14,01,35,15.10
2023,05,14,01,36,15.10
2023,05,14,01,37,15.10
2023,05,14,01,38,15.10
2023,05,14,01,39,15.00
2023,05,14,01,40,15.00
2023,05,14,01,41,15.00
2023,05,14,01,42,14.90
2023,05,14,01,43,14.90
2023,05,14,01,44,14.90
2023,05,14,01,45,14.90
2023,05,14,01,46,15.00
2023,05,14,01,47,15.00
2023,05,14,01,48,15.00
2023,05,14,01,49,15.00
2023,05,14,01,50,15.00
2023,05,14,01,51,15.00
2023,05,14,01,52,15.00
2023,05,14,01,53,14.90
2023,05,14,01,54,14.90
2023,05,14,01,55,14.80
2023,05,14,01,56,14.80
2023,05,14,01,57,14.80
2023,05,14,01,58,14.80
2023,05,14,01,59,14.70
2023,05,14,02,00,14.70
2023,05,14,02,01,14.70
2023,05,14,02,02,14.70
2023,05,14,02,03,14.70
2023,05,14,02,04,14.70
2023,05,14,02,05,14.70
2023,05,14,02,06,14.70
2023,05,14,02,07,14.60
2023,05,14,02,08,14.60
2023,05,14,02,09,14.60
2023,05,14,02,10,14.60
2023,05,14,02,11,14.60
2023,05,14,02,12,14.60
2023,05,14,02,13,14.50
2023,05,14,02,14,14.50
2023,05,14,02,15,14.50
2023,05,14,02,16,14.40
2023,05,14,02,17,14.40
2023,05,14,02,18,14.30
2023,05,14,02,19,14.30
2023,05,14,02,20,14.30
2023,05,14,02,21,14.20
2023,05,14,02,22,14.20
2023,05,14,02,23,14.20
2023,05,14,02,24,14.20
2023,05,14,02,25,14.20
2023,05,14,02,26,14.20
2023,05,14,02,27,14.20
2023,05,14,02,28,14.20
2023,05,14,02,29,14.20
2023,05,14,02,30,14.20
2023,05,14,02,31,14.20
2023,05,14,02,32,14.20
2023,05,14,02,33,14.20
2023,05,14,02,34,14.20
2023,05,14,02,35,14.20
2023,05,14,02,36,14.20
2023,05,14,02,37,14.20
2023,05,14,02,38,14.10
2023,05,14,02,39,14.10
2023,05,14,02,40,14.00
2023,05,14,02,41,14.00
2023,05,14,02,42,13.90
2023,05,14,02,43,13.90
2023,05,14,02,44,13.90
2023,05,14,02,45,13.80
2023,05,14,02,46,13.80
2023,05,14,02,47,13.80
2023,05,14,02,48,13.80
2023,05,14,02,49,13.80
2023,05,14,02,50,13.70
2023,05,14,02,51,13.70
2023,05,14,02,52,13.70
2023,05,14,02,53,13.70
2023,05,14,02,54,13.70
2023,05,14,02,55,13.70
2023,05,14,02,56,13.70
2023,05,14,02,57,13.80
2023,05,14,02,58,13.90
2023,05,14,02,59,14.00
2023,05,14,03,00,14.10
2023,05,14,03,01,14.20
2023,05,14,03,02,14.20
2023,05,14,03,03,14.20
2023,05,14,03,04,14.30
2023,05,14,03,05,14.40
2023,05,14,03,06,14.40
2023,05,14,03,07,14.40
2023,05,14,03,08,14.30
2023,05,14,03,09,14.30
2023,05,14,03,10,14.30
2023,05,14,03,11,14.30
2023,05,14,03,12,14.30
2023,05,14,03,13,14.30
2023,05,14,03,14,14.20
2023,05,14,03,15,14.20
2023,05,14,03,16,14.20
2023,05,14,03,17,14.30
2023,05,14,03,18,14.50
2023,05,14,03,19,14.60
2023,05,14,03,20,14.80
2023,05,14,03,21,15.00
2023,05,14,03,22,15.10
2023,05,14,03,23,15.10
2023,05,14,03,24,15.10
2023,05,14,03,25,15.20
2023,05,14,03,26,15.20
2023,05,14,03,27,15.20
2023,05,14,03,28,15.20
2023,05,14,03,29,15.20
2023,05,14,03,30,15.10
2023,05,14,03,31,15.10
2023,05,14,03,32,15.10
2023,05,14,03,33,15.10
2023,05,14,03,34,15.00
2023,05,14,03,35,15.00
2023,05,14,03,36,15.00
2023,05,14,03,37,15.00
2023,05,14,03,38,15.00
2023,05,14,03,39,15.10
2023,05,14,03,40,15.10
2023,05,14,03,41,15.10
2023,05,14,03,42,15.10
2023,05,14,03,43,15.10
2023,05,14,03,44,15.00
2023,05,14,03,45,14.80
2023,05,14,03,46,14.70
2023,05,14,03,47,14.50
2023,05,14,03,48,14.40
2023,05,14,03,49,14.20
2023,05,14,03,50,14.20
2023,05,14,03,51,14.10
2023,05,14,03,52,14.00
2023,05,14,03,53,14.00
2023,05,14,03,54,14.00
2023,05,14,03,55,14.00
2023,05,14,03,56,14.00
2023,05,14,03,57,14.10
2023,05,14,03,58,14.20
2023,05,14,03,59,14.20
2023,05,14,04,00,14.20
2023,05,14,04,01,14.20
2023,05,14,04,02,14.20
2023,05,14,04,03,14.20
2023,05,14,04,04,14.20
2023,05,14,04,05,14.20
2023,05,14,04,06,14.20
2023,05,14,04,07,14.20
2023,05,14,04,08,14.20
2023,05,14,04,09,14.40
2023,05,14,04,10,14.50
2023,05,14,04,11,14.60
2023,05,14,04,12,14.60
2023,05,14,04,13,14.70
2023,05,14,04,14,14.70
2023,05,14,04,15,14.70
2023,05,14,04,16,14.70
2023,05,14,04,17,14.70
2023,05,14,04,18,14.70
2023,05,14,04,19,14.70
2023,05,14,04,20,14.70
2023,05,14,04,21,14.70
2023,05,14,04,22,14.70
2023,05,14,04,23,14.60
2023,05,14,04,24,14.60
2023,05,14,04,25,14.50
2023,05,14,04,26,14.40
2023,05,14,04,27,14.30
2023,05,14,04,28,14.20
2023,05,14,04,29,14.20
2023,05,14,04,30,14.20
2023,05,14,04,31,14.10
2023,05,14,04,32,14.10
2023,05,14,04,33,14.00
2023,05,14,04,34,13.90
2023,05,14,04,35,14.00
2023,05,14,04,36,14.00
2023,05,14,04,37,14.00
2023,05,14,04,38,14.10
2023,05,14,04,39,14.10
2023,05,14,04,40,14.10
2023,05,14,04,41,14.10
2023,05,14,04,42,14.00
2023,05,14,04,43,14.00
2023,05,14,04,44,13.90
2023,05,14,04,45,13.90
2023,05,14,04,46,13.90
2023,05,14,04,47,13.90
2023,05,14,04,48,13.80
2023,05,14,04,49,13.80
2023,05,14,04,50,13.80
2023,05,14,04,51,13.70
2023,05,14,04,52,13.70
2023,05,14,04,53,13.70
2023,05,14,04,54,13.70
2023,05,14,04,55,13.60
2023,05,14,04,56,13.60
2023,05,14,04,57,13.70
2023,05,14,04,58,13.70
2023,05,14,04,59,13.70
2023,05,14,05,00,13.70
2023,05,14,05,01,13.70
2023,05,14,05,02,13.70
2023,05,14,05,03,13.70
2023,05,14,05,04,13.70
2023,05,14,05,05,13.70
2023,05,14,05,06,13.70
2023,05,14,05,07,13.70
2023,05,14,05,08,13.80
2023,05,14,05,09,13.80
2023,05,14,05,10,13.80
2023,05,14,05,11,13.90
2023,05,14,05,12,13.90
2023,05,14,05,13,13.90
2023,05,14,05,14,13.90
2023,05,14,05,15,13.90
2023,05,14,05,16,13.90
2023,05,14,05,17,13.90
2023,05,14,05,18,13.80
2023,05,14,05,19,13.80
2023,05,14,05,20,13.80
2023,05,14,05,21,13.80
2023,05,14,05,22,13.90
2023,05,14,05,23,13.90
2023,05,14,05,24,14.00
2023,05,14,05,25,14.20
2023,05,14,05,26,14.20
2023,05,14,05,27,14.40
2023,05,14,05,28,14.50
2023,05,14,05,29,14.50
2023,05,14,05,30,14.50
2023,05,14,05,31,14.50
2023,05,14,05,32,14.60
2023,05,14,05,33,14.60
2023,05,14,05,34,14.50
2023,05,14,05,35,14.50
2023,05,14,05,36,14.50
2023,05,14,05,37,14.50
2023,05,14,05,38,14.40
2023,05,14,05,39,14.40
2023,05,14,05,40,14.40
2023,05,14,05,41,14.40
2023,05,14,05,42,14.50
2023,05,14,05,43,14.50
2023,05,14,05,44,14.50
2023,05,14,05,45,14.50
2023,05,14,05,46,14.50
2023,05,14,05,47,14.50
2023,05,14,05,48,14.40
2023,05,14,05,49,14.40
2023,05,14,05,50,14.30
2023,05,14,05,51,14.30
2023,05,14,05,52,14.30
2023,05,14,05,53,14.40
2023,05,14,05,54,14.40
2023,05,14,05,55,14.30
2023,05,14,05,56,14.40
2023,05,14,05,57,14.40
2023,05,14,05,58,14.50
2023,05,14,05,59,14.60
2023,05,14,06,00,14.70
2023,05,14,06,01,14.70
2023,05,14,06,02,14.80
2023,05,14,06,03,14.80
2023,05,14,06,04,14.90
2023,05,14,06,05,14.80
2023,05,14,06,06,14.80
2023,05,14,06,07,14.80
2023,05,14,06,08,14.60
2023,05,14,06,09,14.60
2023,05,14,06,10,14.50
2023,05,14,06,11,14.50
2023,05,14,06,12,14.50
2023,05,14,06,13,14.50
2023,05,14,06,14,14.50
2023,05,14,06,15,14.50
2023,05,14,06,16,14.50
2023,05,14,06,17,14.50
2023,05,14,06,18,14.50
2023,05,14,06,19,14.60
2023,05,14,06,20,14.60
2023,05,14,06,21,14.70
2023,05,14,06,22,14.70
2023,05,14,06,23,14.70
2023,05,14,06,24,14.70
2023,05,14,06,25,14.60
2023,05,14,06,26,14.60
2023,05,14,06,27,14.60
2023,05,14,06,28,14.60
2023,05,14,06,29,14.60
2023,05,14,06,30,14.50
2023,05,14,06,31,14.50
2023,05,14,06,32,14.50
2023,05,14,06,33,14.50
2023,05,14,06,34,14.50
2023,05,14,06,35,14.50
2023,05,14,06,36,14.50
2023,05,14,06,37,14.50
2023,05,14,06,38,14.50
2023,05,14,06,39,14.60
2023,05,14,06,40,14.60
2023,05,14,06,41,14.70
2023,05,14,06,42,14.70
2023,05,14,06,43,14.80
2023,05,14,06,44,14.80
2023,05,14,06,45,14.90
2023,05,14,06,46,14.90
2023,05,14,06,47,14.90
2023,05,14,06,48,14.90
2023,05,14,06,49,14.90
2023,05,14,06,50,14.90
2023,05,14,06,51,15.00
2023,05,14,06,52,15.00
2023,05,14,06,53,15.00
2023,05,14,06,54,15.00
2023,05,14,06,55,15.10
2023,05,14,06,56,15.10
2023,05,14,06,57,15.10
2023,05,14,06,58,15.20
2023,05,14,06,59,15.20
2023,05,14,07,00,15.20
2023,05,14,07,01,15.30
2023,05,14,07,02,15.30
2023,05,14,07,03,15.30
2023,05,14,07,04,15.40
2023,05,14,07,05,15.50
2023,05,14,07,06,15.60
2023,05,14,07,07,15.60
2023,05,14,07,08,15.70
2023,05,14,07,09,15.80
2023,05,14,07,10,15.80
2023,05,14,07,11,15.80
2023,05,14,07,12,15.90
2023,05,14,07,13,16.00
2023,05,14,07,14,16.10
2023,05,14,07,15,16.10
2023,05,14,07,16,16.10
2023,05,14,07,17,16.20
2023,05,14,07,18,16.30
2023,05,14,07,19,16.30
2023,05,14,07,20,16.40
2023,05,14,07,21,16.40
2023,05,14,07,22,16.60
2023,05,14,07,23,16.70
2023,05,14,07,24,16.70
2023,05,14,07,25,16.80
2023,05,14,07,26,16.90
2023,05,14,07,27,16.90
2023,05,14,07,28,17.00
2023,05,14,07,29,17.10
2023,05,14,07,30,17.20
2023,05,14,07,31,17.30
2023,05,14,07,32,17.30
2023,05,14,07,33,17.40
2023,05,14,07,34,17.50
2023,05,14,07,35,17.50
2023,05,14,07,36,17.60
2023,05,14,07,37,17.70
2023,05,14,07,38,17.80
2023,05,14,07,39,17.80
2023,05,14,07,40,17.90
2023,05,14,07,41,17.90
2023,05,14,07,42,18.00
2023,05,14,07,43,18.10
2023,05,14,07,44,18.20
2023,05,14,07,45,18.20
2023,05,14,07,46,18.30
2023,05,14,07,47,18.30
2023,05,14,07,48,18.40
2023,05,14,07,49,18.50
2023,05,14,07,50,18.50
2023,05,14,07,51,18.60
2023,05,14,07,52,18.60
2023,05,14,07,53,18.70
2023,05,14,07,54,18.80
2023,05,14,07,55,18.90
2023,05,14,07,56,18.90
2023,05,14,07,57,19.00
2023,05,14,07,58,19.10
2023,05,14,07,59,19.10
2023,05,14,08,00,19.20
2023,05,14,08,01,19.30
2023,05,14,08,02,19.30
2023,05,14,08,03,19.40
2023,05,14,08,04,19.50
2023,05,14,08,05,19.50
2023,05,14,08,06,19.60
2023,05,14,08,07,19.60
2023,05,14,08,08,19.70
2023,05,14,08,09,19.70
2023,05,14,08,10,19.80
2023,05,14,08,11,19.80
2023,05,14,08,12,19.90
2023,05,14,08,13,19.90
2023,05,14,08,14,19.90
2023,05,14,08,15,19.90
2023,05,14,08,16,20.10
2023,05,14,08,17,20.10
2023,05,14,08,18,20.10
2023,05,14,08,19,20.10
2023,05,14,08,20,20.10
2023,05,14,08,21,20.20
2023,05,14,08,22,20.20
2023,05,14,08,23,20.20
2023,05,14,08,24,20.30
2023,05,14,08,25,20.30
2023,05,14,08,26,20.40
2023,05,14,08,27,20.50
2023,05,14,08,28,20.50
2023,05,14,08,29,20.60
2023,05,14,08,30,20.70
2023,05,14,08,31,20.70
2023,05,14,08,32,20.80
2023,05,14,08,33,20.80
2023,05,14,08,34,20.90
2023,05,14,08,35,21.00
2023,05,14,08,36,21.00
2023,05,14,08,37,21.10
2023,05,14,08,38,21.20
2023,05,14,08,39,21.30
2023,05,14,08,40,21.30
2023,05,14,08,41,21.40
2023,05,14,08,42,21.50
2023,05,14,08,43,21.60
2023,05,14,08,44,21.80
2023,05,14,08,45,22.00
2023,05,14,08,46,22.20
2023,05,14,08,47,22.40
2023,05,14,08,48,22.60
2023,05,14,08,49,22.70
2023,05,14,08,50,22.90
2023,05,14,08,51,23.00
2023,05,14,08,52,23.10
2023,05,14,08,53,23.20
2023,05,14,08,54,23.20
2023,05,14,08,55,23.10
2023,05,14,08,56,22.90
2023,05,14,08,57,22.90
2023,05,14,08,58,22.90
2023,05,14,08,59,22.90
2023,05,14,09,00,22.90
2023,05,14,09,01,22.90
2023,05,14,09,02,22.90
2023,05,14,09,03,22.90
2023,05,14,09,04,22.90
2023,05,14,09,05,22.90
2023,05,14,09,06,22.90
2023,05,14,09,07,22.90
2023,05,14,09,08,22.90
2023,05,14,09,09,23.00
2023,05,14,09,10,23.10
2023,05,14,09,11,23.20
2023,05,14,09,12,23.20
2023,05,14,09,13,23.20
2023,05,14,09,14,23.30
2023,05,14,09,15,23.30
2023,05,14,09,16,23.20
2023,05,14,09,17,23.20
2023,05,14,09,18,23.10
2023,05,14,09,19,23.10
2023,05,14,09,20,23.10
2023,05,14,09,21,23.10
2023,05,14,09,22,23.10
2023,05,14,09,23,23.20
2023,05,14,09,24,23.20
2023,05,14,09,25,23.30
2023,05,14,09,26,23.40
2023,05,14,09,27,23.60
2023,05,14,09,28,23.70
2023,05,14,09,29,23.70
2023,05,14,09,30,23.80
2023,05,14,09,31,23.80
2023,05,14,09,32,23.80
2023,05,14,09,33,23.80
2023,05,14,09,34,23.90
2023,05,14,09,35,24.00
2023,05,14,09,36,24.10
2023,05,14,09,37,24.10
2023,05,14,09,38,24.30
2023,05,14,09,39,24.40
2023,05,14,09,40,24.60
2023,05,14,09,41,24.80
2023,05,14,09,42,24.90
2023,05,14,09,43,25.00
2023,05,14,09,44,24.90
2023,05,14,09,45,24.90
2023,05,14,09,46,24.90
2023,05,14,09,47,24.80
2023,05,14,09,48,24.80
2023,05,14,09,49,24.80
2023,05,14,09,50,24.90
2023,05,14,09,51,24.90
2023,05,14,09,52,24.80
2023,05,14,09,53,24.70
2023,05,14,09,54,24.60
2023,05,14,09,55,24.50
2023,05,14,09,56,24.40
2023,05,14,09,57,24.20
2023,05,14,09,58,24.20
2023,05,14,09,59,24.10
2023,05,14,10,00,24.10
2023,05,14,10,01,24.10
2023,05,14,10,02,24.10
2023,05,14,10,03,24.00
2023,05,14,10,04,23.90
2023,05,14,10,05,23.80
2023,05,14,10,06,23.80
2023,05,14,10,07,23.70
2023,05,14,10,08,23.70
2023,05,14,10,09,23.70
2023,05,14,10,10,23.70
2023,05,14,10,11,23.70
2023,05,14,10,12,23.70
2023,05,14,10,13,23.70
2023,05,14,10,14,23.70
2023,05,14,10,15,23.70
2023,05,14,10,16,23.70
2023,05,14,10,17,23.60
2023,05,14,10,18,23.60
2023,05,14,10,19,23.60
2023,05,14,10,20,23.60
2023,05,14,10,21,23.60
2023,05,14,10,22,23.60
2023,05,14,10,23,23.60
2023,05,14,10,24,23.70
2023,05,14,10,25,23.60
2023,05,14,10,26,23.60
2023,05,14,10,27,23.60
2023,05,14,10,28,23.60
2023,05,14,10,29,23.60
2023,05,14,10,30,23.70
2023,05,14,10,31,23.70
2023,05,14,10,32,23.70
2023,05,14,10,33,23.70
2023,05,14,10,34,23.70
2023,05,14,10,35,23.80
2023,05,14,10,36,23.80
2023,05,14,10,37,23.90
2023,05,14,10,38,23.90
2023,05,14,10,39,24.00
2023,05,14,10,40,24.10
2023,05,14,10,41,24.10
2023,05,14,10,42,24.10
2023,05,14,10,43,24.10
2023,05,14,10,44,24.20
2023,05,14,10,45,24.20
2023,05,14,10,46,24.20
2023,05,14,10,47,24.20
2023,05,14,10,48,24.20
2023,05,14,10,49,24.20
2023,05,14,10,50,24.20
2023,05,14,10,51,24.20
2023,05,14,10,52,24.20
2023,05,14,10,53,24.20
2023,05,14,10,54,24.20
2023,05,14,10,55,24.20
2023,05,14,10,56,24.30
2023,05,14,10,57,24.30
2023,05,14,10,58,24.30
2023,05,14,10,59,24.30
2023,05,14,11,00,24.30
2023,05,14,11,01,24.30
2023,05,14,11,02,24.30
2023,05,14,11,03,24.40
2023,05,14,11,04,24.40
2023,05,14,11,05,24.50
2023,05,14,11,06,24.50
2023,05,14,11,07,24.50
2023,05,14,11,08,24.50
2023,05,14,11,09,24.50
2023,05,14,11,10,24.50
2023,05,14,11,11,24.50
2023,05,14,11,12,24.50
2023,05,14,11,13,24.40
2023,05,14,11,14,24.40
2023,05,14,11,15,24.30
2023,05,14,11,16,24.30
2023,05,14,11,17,24.30
2023,05,14,11,18,24.30
2023,05,14,11,19,24.30
2023,05,14,11,20,24.40
2023,05,14,11,21,24.40
2023,05,14,11,22,24.50
2023,05,14,11,23,24.50
2023,05,14,11,24,24.50
2023,05,14,11,25,24.60
2023,05,14,11,26,24.60
2023,05,14,11,27,24.70
2023,05,14,11,28,24.70
2023,05,14,11,29,24.80
2023,05,14,11,30,24.80
2023,05,14,11,31,24.90
2023,05,14,11,32,25.00
2023,05,14,11,33,25.00
2023,05,14,11,34,25.10
2023,05,14,11,35,25.10
2023,05,14,11,36,25.10
2023,05,14,11,37,25.20
2023,05,14,11,38,25.20
2023,05,14,11,39,25.20
2023,05,14,11,40,25.10
2023,05,14,11,41,25.10
2023,05,14,11,42,25.20
2023,05,14,11,43,25.20
2023,05,14,11,44,25.20
2023,05,14,11,45,25.20
2023,05,14,11,46,25.20
2023,05,14,11,47,25.20
2023,05,14,11,48,25.20
2023,05,14,11,49,25.20
2023,05,14,11,50,25.20
2023,05,14,11,51,25.20
2023,05,14,11,52,25.20
2023,05,14,11,53,25.20
2023,05,14,11,54,25.20
2023,05,14,11,55,25.30
2023,05,14,11,56,25.40
2023,05,14,11,57,25.40
2023,05,14,11,58,25.40
2023,05,14,11,59,25.50
2023,05,14,12,00,25.60
2023,05,14,12,01,25.60
2023,05,14,12,02,25.60
2023,05,14,12,03,25.60
2023,05,14,12,04,25.60
2023,05,14,12,05,25.70
2023,05,14,12,06,25.70
2023,05,14,12,07,25.70
2023,05,14,12,08,25.70
2023,05,14,12,09,25.70
2023,05,14,12,10,25.70
2023,05,14,12,11,25.60
2023,05,14,12,12,25.40
2023,05,14,12,13,25.20
2023,05,14,12,14,25.10
2023,05,14,12,15,24.90
2023,05,14,12,16,24.80
2023,05,14,12,17,24.80
2023,05,14,12,18,24.70
2023,05,14,12,19,24.70
2023,05,14,12,20,24.70
2023,05,14,12,21,24.70
2023,05,14,12,22,24.70
2023,05,14,12,23,24.70
2023,05,14,12,24,24.70
2023,05,14,12,25,24.70
2023,05,14,12,26,24.80
2023,05,14,12,27,24.80
2023,05,14,12,28,24.80
2023,05,14,12,29,24.90
2023,05,14,12,30,24.90
2023,05,14,12,31,25.00
2023,05,14,12,32,25.10
2023,05,14,12,33,25.20
2023,05,14,12,34,25.20
2023,05,14,12,35,25.30
2023,05,14,12,36,25.40
2023,05,14,12,37,25.50
2023,05,14,12,38,25.60
2023,05,14,12,39,25.70
2023,05,14,12,40,25.70
2023,05,14,12,41,25.80
2023,05,14,12,42,25.80
2023,05,14,12,43,25.90
2023,05,14,12,44,25.90
2023,05,14,12,45,25.90
2023,05,14,12,46,25.90
2023,05,14,12,47,26.00
2023,05,14,12,48,26.00
2023,05,14,12,49,26.10
2023,05,14,12,50,26.30
2023,05,14,12,51,26.40
2023,05,14,12,52,26.50
2023,05,14,12,53,26.60
2023,05,14,12,54,26.60
2023,05,14,12,55,26.60
2023,05,14,12,56,26.60
2023,05,14,12,57,26.60
2023,05,14,12,58,26.60
2023,05,14,12,59,26.60
2023,05,14,13,00,26.70
2023,05,14,13,01,26.70
2023,05,14,13,02,26.70
2023,05,14,13,03,26.80
2023,05,14,13,04,26.80
2023,05,14,13,05,26.80
2023,05,14,13,06,26.70
2023,05,14,13,07,26.60
2023,05,14,13,08,26.50
2023,05,14,13,09,26.40
2023,05,14,13,10,26.40
2023,05,14,13,11,26.30
2023,05,14,13,12,26.20
2023,05,14,13,13,26.20
2023,05,14,13,14,26.20
2023,05,14,13,15,26.20
2023,05,14,13,16,26.10
2023,05,14,13,17,26.10
2023,05,14,13,18,26.00
2023,05,14,13,19,26.00
2023,05,14,13,20,25.90
2023,05,14,13,21,25.90
2023,05,14,13,22,25.80
2023,05,14,13,23,25.70
2023,05,14,13,24,25.70
2023,05,14,13,25,25.70
2023,05,14,13,26,25.70
2023,05,14,13,27,25.70
2023,05,14,13,28,25.70
2023,05,14,13,29,25.80
2023,05,14,13,30,25.90
2023,05,14,13,31,25.90
2023,05,14,13,32,26.00
2023,05,14,13,33,26.10
2023,05,14,13,34,26.10
2023,05,14,13,35,26.20
2023,05,14,13,36,26.30
2023,05,14,13,37,26.40
2023,05,14,13,38,26.40
2023,05,14,13,39,26.50
2023,05,14,13,40,26.60
2023,05,14,13,41,26.60
2023,05,14,13,42,26.60
2023,05,14,13,43,26.60
2023,05,14,13,44,26.60
2023,05,14,13,45,26.60
2023,05,14,13,46,26.60
2023,05,14,13,47,26.50
2023,05,14,13,48,26.50
2023,05,14,13,49,26.60
2023,05,14,13,50,26.60
2023,05,14,13,51,26.40
2023,05,14,13,52,26.30
2023,05,14,13,53,26.20
2023,05,14,13,54,26.10
2023,05,14,13,55,26.00
2023,05,14,13,56,26.00
2023,05,14,13,57,25.90
2023,05,14,13,58,25.90
2023,05,14,13,59,25.80
2023,05,14,14,00,25.90
2023,05,14,14,01,25.90
2023,05,14,14,02,25.90
2023,05,14,14,03,25.90
2023,05,14,14,04,26.00
2023,05,14,14,05,26.00
2023,05,14,14,06,26.10
2023,05,14,14,07,26.10
2023,05,14,14,08,26.30
2023,05,14,14,09,26.40
2023,05,14,14,10,26.60
2023,05,14,14,11,26.70
2023,05,14,14,12,26.90
2023,05,14,14,13,27.00
2023,05,14,14,14,27.10
2023,05,14,14,15,27.20
2023,05,14,14,16,27.20
2023,05,14,14,17,27.10
2023,05,14,14,18,27.00
2023,05,14,14,19,26.90
2023,05,14,14,20,26.80
2023,05,14,14,21,26.70
2023,05,14,14,22,26.50
2023,05,14,14,23,26.40
2023,05,14,14,24,26.20
2023,05,14,14,25,26.10
2023,05,14,14,26,26.00
2023,05,14,14,27,25.90
2023,05,14,14,28,25.80
2023,05,14,14,29,25.80
2023,05,14,14,30,25.80
2023,05,14,14,31,25.80
2023,05,14,14,32,25.90
2023,05,14,14,33,25.80
2023,05,14,14,34,25.80
2023,05,14,14,35,25.80
2023,05,14,14,36,25.70
2023,05,14,14,37,25.70
2023,05,14,14,38,25.70
2023,05,14,14,39,25.80
2023,05,14,14,40,25.80
2023,05,14,14,41,25.90
2023,05,14,14,42,26.00
2023,05,14,14,43,26.00
2023,05,14,14,44,26.00
2023,05,14,14,45,25.90
2023,05,14,14,46,25.90
2023,05,14,14,47,25.80
2023,05,14,14,48,25.70
2023,05,14,14,49,25.60
2023,05,14,14,50,25.50
2023,05,14,14,51,25.50
2023,05,14,14,52,25.40
2023,05,14,14,53,25.40
2023,05,14,14,54,25.40
2023,05,14,14,55,25.40
2023,05,14,14,56,25.40
2023,05,14,14,57,25.40
2023,05,14,14,58,25.50
2023,05,14,14,59,25.60
2023,05,14,15,00,25.70
2023,05,14,15,01,25.90
2023,05,14,15,02,25.90
2023,05,14,15,03,26.10
2023,05,14,15,04,26.20
2023,05,14,15,05,26.40
2023,05,14,15,06,26.50
2023,05,14,15,07,26.60
2023,05,14,15,08,26.70
2023,05,14,15,09,26.80
2023,05,14,15,10,26.80
2023,05,14,15,11,26.80
2023,05,14,15,12,26.90
2023,05,14,15,13,27.00
2023,05,14,15,14,27.10
2023,05,14,15,15,27.20
2023,05,14,15,16,27.20
2023,05,14,15,17,27.30
2023,05,14,15,18,27.40
2023,05,14,15,19,27.50
2023,05,14,15,20,27.60
2023,05,14,15,21,27.70
2023,05,14,15,22,27.80
2023,05,14,15,23,28.00
2023,05,14,15,24,28.10
2023,05,14,15,25,28.30
2023,05,14,15,26,28.40
2023,05,14,15,27,28.50
2023,05,14,15,28,28.60
2023,05,14,15,29,28.60
2023,05,14,15,30,28.60
2023,05,14,15,31,28.40
2023,05,14,15,32,28.40
2023,05,14,15,33,28.30
2023,05,14,15,34,28.20
2023,05,14,15,35,28.20
2023,05,14,15,36,28.20
2023,05,14,15,37,28.20
2023,05,14,15,38,28.20
2023,05,14,15,39,28.20
2023,05,14,15,40,28.20
2023,05,14,15,41,28.10
2023,05,14,15,42,28.10
2023,05,14,15,43,27.90
2023,05,14,15,44,27.80
2023,05,14,15,45,27.80
2023,05,14,15,46,27.70
2023,05,14,15,47,27.80
2023,05,14,15,48,27.90
2023,05,14,15,49,28.10
2023,05,14,15,50,28.20
2023,05,14,15,51,28.40
2023,05,14,15,52,28.60
2023,05,14,15,53,28.70
2023,05,14,15,54,28.90
2023,05,14,15,55,28.90
2023,05,14,15,56,28.80
2023,05,14,15,57,28.50
2023,05,14,15,58,28.10
2023,05,14,15,59,27.70
2023,05,14,16,00,27.30
2023,05,14,16,01,26.90
2023,05,14,16,02,26.70
2023,05,14,16,03,26.60
2023,05,14,16,04,26.50
2023,05,14,16,05,26.40
2023,05,14,16,06,26.40
2023,05,14,16,07,26.50
2023,05,14,16,08,26.60
2023,05,14,16,09,26.60
2023,05,14,16,10,26.70
2023,05,14,16,11,26.80
2023,05,14,16,12,26.90
2023,05,14,16,13,27.00
2023,05,14,16,14,27.10
2023,05,14,16,15,27.10
2023,05,14,16,16,27.10
2023,05,14,16,17,27.00
2023,05,14,16,18,26.90
2023,05,14,16,19,26.80
2023,05,14,16,20,26.70
2023,05,14,16,21,26.70
2023,05,14,16,22,26.60
2023,05,14,16,23,26.60
2023,05,14,16,24,26.50
2023,05,14,16,25,26.40
2023,05,14,16,26,26.30
2023,05,14,16,27,26.10
2023,05,14,16,28,25.90
2023,05,14,16,29,25.90
2023,05,14,16,30,25.80
2023,05,14,16,31,25.70
2023,05,14,16,32,25.70
2023,05,14,16,33,25.70
2023,05,14,16,34,25.80
2023,05,14,16,35,25.80
2023,05,14,16,36,25.80
2023,05,14,16,37,25.80
2023,05,14,16,38,25.80
2023,05,14,16,39,25.80
2023,05,14,16,40,25.70
2023,05,14,16,41,25.70
2023,05,14,16,42,25.70
2023,05,14,16,43,25.70
2023,05,14,16,44,25.70
2023,05,14,16,45,25.80
2023,05,14,16,46,25.90
2023,05,14,16,47,25.90
2023,05,14,16,48,26.00
2023,05,14,16,49,26.20
2023,05,14,16,50,26.30
2023,05,14,16,51,26.30
2023,05,14,16,52,26.30
2023,05,14,16,53,26.10
2023,05,14,16,54,25.90
2023,05,14,16,55,25.80
2023,05,14,16,56,25.60
2023,05,14,16,57,25.50
2023,05,14,16,58,25.40
2023,05,14,16,59,25.40
2023,05,14,17,00,25.40
2023,05,14,17,01,25.50
2023,05,14,17,02,25.50
2023,05,14,17,03,25.60
2023,05,14,17,04,25.60
2023,05,14,17,05,25.60
2023,05,14,17,06,25.70
2023,05,14,17,07,25.70
2023,05,14,17,08,25.70
2023,05,14,17,09,25.70
2023,05,14,17,10,25.70
2023,05,14,17,11,25.60
2023,05,14,17,12,25.60
2023,05,14,17,13,25.60
2023,05,14,17,14,25.60
2023,05,14,17,15,25.60
2023,05,14,17,16,25.60
2023,05,14,17,17,25.60
2023,05,14,17,18,25.70
2023,05,14,17,19,25.80